Location: Bielsko-Biala
(49.8170°N, 19.0330°E)
Time: 19:34:05
(UTC+01:00)

ISS - Visible Passes

Search period start: 24 March 2023 00:00
Search period end: 03 April 2023 01:00
Orbit: 414 x 422 km, 51.6° (Epoch: 24 March)

Date Brightness Start Highest point End Pass type
(mag) Time Alt. Az. Time Alt. Az. Time Alt. Az.
24 Mar -3.5 18:43:01 10° W 18:46:22 66° N 18:49:42 10° ENE visible
24 Mar -3.2 20:19:58 10° WNW 20:22:45 56° NW 20:22:45 56° NW visible
25 Mar -3.6 19:32:03 10° WNW 19:35:23 65° N 19:36:46 31° E visible
25 Mar -0.9 21:08:54 10° WNW 21:09:42 16° W 21:09:42 16° W visible
26 Mar -3.4 19:44:04 10° W 19:47:24 61° N 19:50:43 10° E visible
26 Mar -3.2 21:20:55 10° WNW 21:23:41 54° W 21:23:41 54° W visible
27 Mar -3.8 20:32:57 10° WNW 20:36:18 90° NNW 20:37:39 34° ESE visible
27 Mar -0.8 22:10:00 10° W 22:10:34 13° W 22:10:34 13° W visible
28 Mar -3.7 19:44:55 10° WNW 19:48:17 74° NNE 19:51:35 10° E visible
28 Mar -2.6 21:21:49 10° W 21:24:31 34° SW 21:24:31 34° SW visible
29 Mar -3.3 20:33:41 10° WNW 20:36:58 51° SSW 20:38:27 27° SE visible
30 Mar -3.6 19:45:35 10° WNW 19:48:56 72° SSW 19:52:15 10° ESE visible
30 Mar -1.6 21:22:57 10° W 21:25:16 17° SW 21:25:20 17° SW visible
31 Mar -2.1 20:34:29 10° W 20:37:20 26° SW 20:39:19 15° SSE visible
01 Apr -2.6 19:46:11 10° W 19:49:19 37° SSW 19:52:26 10° SE visible
02 Apr -1.0 20:36:01 10° WSW 20:37:24 12° SW 20:38:45 10° SSW visible
